Tracking 20241 objects as of 26-Jan-2020
HD Live streaming from Space Station
objects crossing your sky now

COSMOS 489

Track COSMOS 489 now!
10-day predictions
COSMOS 489 is classified as:


NORAD ID: 6019
Int'l Code: 1972-035A
Perigee: 967.3 km
Apogee: 1,003.7 km
Inclination: 74.0 °
Period: 104.7 minutes
Semi major axis: 7356 km
RCS: 1.7983 m2 (large)
Launch date: May 6, 1972
Source: Commonwealth of Independent States (former USSR) (CIS)
Launch site: PLESETSK MISSILE AND SPACE COMPLEX (PKMTR)
aabbcc
Your satellite tracking list
Your tracking list is empty




NASA's NSSDC Master Catalog

Two Line Element Set (TLE):
1  6019U 72035A   20025.83866612  .00000008  00000-0  31516-4 0  9990
2  6019  74.0186 249.5207 0024735 331.3955 106.8434 13.75933229396089
Source of the keplerian elements: AFSPC